Wind_Speed
1 1 1 1 2 2 2 4 2 3 2 1 3 1 4 4 2 2 4 3 1 2 3 2 6 6 3 3 7 6 5 8 6 5 4 5 2 14 29 17 13 27 32 28 26 25 23 21 19 18 17 16 16 15 15 15 14 14 14 13 13 11 11 11 11 10 10 11 11 11 10 10 10 10 9 9 9 8 8 8 9 9 8 8 8 8 9 8 7 7 5 3 3 3 3 3 3
1 1 2 1 3 1 1 4 2 3 4 3 3 3 4 3 1 5 7 5 4 3 3 1 4 1 2 1 3 2 4 5 5 4 4 3 1 17 29 17 16 30 32 28 27 25 24 23 21 20 17 16 16 15 15 14 14 13 13 13 13 12 12 12 12 12 12 12 12 11 10 10 10 10 8 7 8 7 6 7 9 8 8 8 8 7 7 7 4 4 3 1 1 3 3 2 3
1 1 2 0 3 3 1 4 1 1 2 3 5 4 2 1 5 7 8 8 6 3 3 1 3 1 1 2 0 3 5 4 3 3 3 4 5 17 30 18 20 31 31 29 27 26 25 23 23 22 18 16 16 16 15 13 13 13 13 13 13 13 12 12 12 12 12 11 11 10 9 8 8 7 7 6 6 6 5 7 8 6 7 8 6 6 5 4 4 5 5 3 2 4 4 4 4
1 2 3 1 1 4 4 3 1 3 2 3 4 5 3 4 8 7 7 8 5 2 1 1 1 1 4 5 3 1 5 4 4 6 1 9 9 18 30 20 24 32 30 29 28 27 25 25 24 22 18 16 16 16 15 14 13 13 13 13 13 13 13 12 11 11 11 10 9 8 8 7 6 6 5 5 5 6 6 6 6 5 6 6 5 7 9 8 7 8 8 6 5 6 6 6 5
2 3 3 1 2 2 3 2 2 3 4 4 2 6 5 7 7 6 6 6 5 4 2 2 1 2 2 5 3 1 6 3 4 9 4 8 12 20 29 23 28 32 31 30 28 27 26 25 25 22 18 16 16 15 15 15 14 13 14 13 12 13 13 13 11 11 12 10 9 8 7 7 7 6 5 5 6 6 6 5 6 6 5 5 4 7 10 9 9 8 8 6 6 7 7 6 6
1 3 6 5 3 1 3 1 2 3 5 5 3 7 7 7 6 5 6 6 3 5 3 2 1 1 2 3 3 4 5 1 1 9 6 5 12 23 28 26 30 32 32 32 29 28 26 25 25 21 17 16 16 14 15 15 15 14 15 15 13 13 13 13 12 11 12 11 10 9 8 8 7 7 6 6 7 7 7 6 7 6 6 7 6 7 7 7 7 6 6 6 6 7 6 6 5
1 1 4 5 2 2 3 3 4 4 5 6 5 7 8 5 5 3 5 3 1 3 2 1 1 2 3 3 2 5 5 4 1 5 7 6 13 24 28 28 31 32 32 32 30 29 26 25 25 20 16 18 16 15 16 15 15 15 16 16 14 14 13 13 13 13 12 12 12 11 10 10 9 9 8 8 8 8 8 9 9 9 8 8 6 5 4 4 3 3 4 4 5 5 4 4 4
3 1 1 4 1 3 2 3 4 4 4 4 5 7 9 5 3 1 3 1 2 2 0 2 2 2 5 2 2 5 5 9 4 3 8 8 15 25 29 29 31 31 31 31 30 29 27 26 25 21 17 19 18 17 17 16 16 16 15 16 16 15 14 14 14 14 13 12 12 12 12 12 11 10 10 9 9 9 10 10 10 10 9 8 7 5 4 3 2 2 2 3 3 3 3 3 4
5 3 0 2 2 1 1 3 4 4 5 6 5 7 9 5 3 3 4 4 3 1 2 4 4 3 4 3 4 5 4 10 8 5 8 10 17 26 29 30 30 31 30 30 29 28 28 26 25 22 19 18 19 18 17 16 16 15 15 15 16 16 15 15 14 14 14 13 13 13 13 12 12 11 11 11 10 10 10 9 9 9 9 7 6 5 4 3 3 2 2 2 2 2 2 2 2
4 4 1 1 2 1 4 3 3 3 6 5 7 10 9 5 3 4 4 5 4 1 3 3 4 4 3 2 6 4 3 9 11 9 9 11 19 27 30 30 30 30 29 29 28 28 28 27 25 23 20 19 19 18 17 17 16 16 16 16 16 16 15 15 14 14 14 14 14 14 14 13 13 13 13 12 11 10 9 9 9 9 8 7 7 6 6 5 4 4 3 3 2 2 1 1 0
3 4 2 2 2 1 4 4 4 5 6 5 7 9 8 5 3 3 4 5 4 2 2 3 2 5 1 3 5 3 4 7 12 12 10 14 21 28 30 29 29 28 28 28 28 27 27 26 25 23 21 21 19 19 18 17 16 16 16 17 16 16 16 15 15 15 14 14 14 14 14 15 14 14 13 12 11 10 10 10 10 9 9 9 8 8 8 7 6 5 4 4 3 2 2 1 2
2 3 4 3 1 3 4 3 5 7 7 6 6 5 2 5 4 3 5 4 2 1 5 5 2 3 2 4 4 4 5 8 13 11 11 17 23 28 29 29 28 27 27 27 27 27 26 26 25 23 22 22 20 19 18 17 17 16 16 16 16 16 16 15 15 14 14 14 14 14 14 15 14 13 13 12 12 11 11 11 11 10 10 10 9 9 8 8 7 6 5 5 4 3 2 2 3
2 2 5 2 3 2 2 3 5 6 7 4 5 5 2 5 4 5 5 3 2 1 7 7 2 2 2 5 4 5 5 8 13 11 12 19 24 28 29 29 28 27 26 26 27 27 26 26 25 24 24 23 22 21 20 19 18 17 16 16 16 16 16 15 15 14 15 14 14 15 15 16 15 14 13 13 13 12 12 12 11 11 11 10 9 9 8 7 6 6 5 5 5 4 3 2 3
3 3 4 1 0 1 2 3 4 3 5 6 4 4 1 2 4 4 5 3 6 4 4 5 5 2 3 3 5 5 3 5 13 13 14 21 25 27 28 28 28 27 26 26 27 27 26 26 26 26 25 24 23 23 22 21 20 19 17 17 17 16 15 15 15 16 16 16 16 17 17 16 15 14 14 14 13 13 13 12 12 11 11 10 9 8 7 6 5 5 5 4 4 3 3 2 2
3 2 4 2 1 2 3 3 2 2 4 6 3 1 2 4 3 3 5 5 7 5 1 1 5 2 3 3 4 4 3 5 14 15 17 22 24 25 26 27 27 27 27 27 27 27 27 27 28 27 26 25 24 24 24 23 22 21 19 19 19 16 15 16 16 17 17 17 18 18 18 17 16 16 15 15 14 14 13 12 12 11 10 9 8 7 6 5 4 4 3 3 3 2 2 2 1
3 4 4 1 1 2 3 4 1 1 5 6 3 1 2 7 3 2 5 4 4 3 1 3 4 2 4 6 5 4 3 8 16 17 20 21 22 23 24 26 26 27 27 28 28 28 28 28 29 29 28 27 26 26 26 25 24 23 21 21 20 18 18 18 18 18 18 18 19 19 18 18 18 17 16 15 14 14 13 12 11 11 9 8 7 6 5 4 4 3 2 2 1 1 1 0 0
3 4 3 1 2 2 4 4 4 3 6 6 5 1 0 7 2 3 2 2 3 3 1 5 3 2 5 5 3 3 2 13 18 19 21 20 21 20 21 24 26 27 29 30 30 30 30 30 31 30 30 29 28 27 27 26 25 24 23 22 22 21 21 20 20 20 20 21 20 20 19 19 18 17 16 15 14 14 13 12 11 11 9 8 7 6 5 4 3 3 2 2 1 1 1 1 1
3 3 3 2 3 4 6 8 7 4 4 6 4 2 2 7 5 2 1 1 3 3 4 5 6 7 7 5 4 1 9 17 20 22 22 20 19 19 21 25 28 30 32 32 33 33 33 33 32 32 32 31 30 29 28 27 26 25 25 24 23 22 22 22 22 23 22 22 21 20 20 19 18 17 17 16 15 14 13 12 11 10 9 8 7 6 5 4 4 3 3 3 2 2 2 2 2
3 3 2 4 6 6 6 8 6 4 4 6 7 3 3 7 4 1 2 6 5 5 7 4 7 11 9 6 4 6 14 20 24 25 23 23 23 23 24 26 29 31 33 37 38 36 35 35 34 35 34 33 31 30 30 29 28 27 26 25 24 24 24 24 24 24 23 22 21 21 20 20 19 18 18 17 16 15 14 13 12 11 9 8 7 7 6 5 5 4 4 4 3 3 3 3 3
2 3 2 6 7 6 5 7 8 7 4 5 9 4 2 6 4 1 3 7 6 7 9 6 8 12 11 6 7 11 17 20 24 25 24 25 27 28 27 28 31 35 39 41 39 38 38 37 36 36 36 34 33 32 31 30 29 28 27 26 25 25 26 26 25 25 24 23 22 22 21 21 21 20 19 18 17 16 15 14 13 12 10 9 8 8 7 7 6 5 5 5 4 4 4 4 4
1 4 5 7 4 4 7 8 9 8 3 4 6 4 5 6 2 2 3 5 9 9 10 11 13 13 12 7 8 13 15 17 21 23 23 24 26 28 29 32 36 38 38 36 37 40 40 39 38 37 37 36 35 34 33 32 31 29 28 27 27 27 27 27 26 25 24 23 23 23 23 22 22 22 21 20 18 17 16 15 14 13 12 11 10 9 9 8 7 7 6 6 5 5 5 5 5
2 4 6 6 5 4 7 7 8 5 3 4 4 6 7 3 1 5 6 5 10 9 8 12 14 13 11 7 8 10 11 13 16 20 22 23 26 28 30 32 32 31 31 34 39 42 42 41 40 39 38 37 37 36 35 33 32 31 29 29 28 28 28 28 27 26 25 25 25 25 25 24 24 23 22 21 19 18 17 16 16 15 14 13 12 11 10 10 9 8 7 7 7 6 6 5 5
3 5 5 6 6 6 6 3 4 4 3 5 4 5 4 4 8 6 10 11 16 13 8 10 11 11 9 5 8 9 11 13 15 21 25 26 29 31 33 33 33 33 33 37 40 40 41 42 41 40 40 39 38 37 36 35 34 32 31 30 30 30 30 29 28 28 27 27 27 27 27 26 25 24 23 22 20 20 19 18 18 16 15 14 13 12 11 11 10 9 9 8 8 7 7 6 6
3 5 5 6 6 8 8 4 3 3 7 8 3 6 8 10 9 2 8 13 18 17 10 8 10 9 7 5 8 11 13 15 18 27 31 32 35 38 38 36 36 35 34 36 37 38 42 43 43 43 42 41 40 39 38 37 36 34 32 32 32 31 31 31 30 29 29 29 29 29 28 27 26 25 24 23 22 21 21 20 19 18 17 15 14 13 11 11 11 10 9 9 8 8 7 6 5
5 7 5 3 4 7 9 6 6 7 9 7 2 7 16 14 6 6 10 13 17 18 11 9 11 9 8 9 10 11 12 14 18 25 29 31 33 33 34 33 31 30 34 37 37 39 42 43 44 45 45 43 42 41 40 39 38 36 35 34 33 33 33 32 31 30 31 30 30 30 29 28 27 27 26 25 24 23 23 22 20 19 17 16 14 13 12 11 11 10 10 9 8 7 7 6 5
7 8 5 4 5 7 8 7 7 7 6 4 3 11 18 9 4 10 14 16 18 15 11 9 9 10 9 10 11 11 11 13 16 21 25 28 27 27 32 32 30 34 38 37 37 40 41 42 44 47 47 45 44 43 42 41 40 38 37 36 35 35 34 33 32 32 32 32 31 31 30 29 28 27 27 26 26 25 24 23 21 19 18 16 15 14 13 11 11 10 10 9 8 7 6 5 4
5 5 5 7 8 7 6 6 7 5 5 7 8 14 17 5 1 8 10 10 9 7 10 8 6 10 10 10 10 10 11 15 18 19 19 19 22 28 33 32 35 40 38 36 39 41 39 41 44 46 46 46 45 45 44 44 42 41 40 38 37 36 35 34 34 34 34 33 33 32 31 30 29 28 28 28 27 27 26 24 22 20 18 17 15 14 14 13 12 11 10 9 8 8 6 5 4
2 2 5 9 7 8 7 7 7 4 5 9 12 11 13 4 2 13 16 7 2 6 12 9 7 10 10 9 10 8 10 16 18 15 14 18 26 33 34 36 41 41 39 41 43 40 40 42 44 45 46 46 46 47 46 46 45 43 41 40 38 37 37 36 36 36 36 35 34 33 32 31 30 30 29 29 29 28 26 24 22 21 19 18 17 16 15 14 13 12 12 11 9 8 7 6 5
1 3 4 10 7 10 11 7 5 7 4 6 10 4 8 6 9 18 19 6 2 6 11 11 10 10 9 9 8 7 10 14 13 15 22 28 33 34 36 41 43 41 43 44 40 39 42 42 43 44 45 46 48 49 48 48 47 45 44 42 40 39 38 38 38 38 37 36 35 35 33 32 32 31 31 31 30 29 27 25 23 21 20 19 18 17 16 15 15 13 12 11 10 9 7 6 5
3 2 0 7 7 9 8 2 2 4 5 7 7 3 6 10 16 19 13 5 3 6 10 11 11 9 8 8 7 8 10 10 12 21 29 33 34 33 37 42 40 41 41 38 38 41 43 42 43 43 44 47 49 49 49 49 48 47 46 44 42 41 40 40 40 39 39 38 37 36 35 34 33 33 32 32 31 30 28 26 24 22 21 20 19 18 17 16 15 14 13 12 11 9 7 6 5
3 2 1 2 2 7 5 2 2 2 4 7 6 5 8 9 17 20 10 3 6 8 10 11 11 9 8 8 7 9 10 11 17 26 31 34 35 33 37 40 37 40 38 36 41 43 42 43 43 44 45 47 48 50 50 51 50 49 48 46 44 43 42 42 42 41 40 39 39 38 37 36 35 35 34 33 33 31 29 27 25 24 23 22 20 19 18 17 16 14 13 12 11 10 8 7 6
2 2 4 2 3 6 10 6 6 7 4 4 6 5 8 9 16 19 8 1 6 8 10 10 11 11 9 9 8 9 11 11 17 25 31 34 35 34 38 40 37 38 39 40 42 40 41 43 43 44 45 47 49 50 51 50 50 49 48 47 46 45 44 44 44 43 42 41 40 39 38 38 37 37 36 35 34 33 31 28 27 26 24 23 22 21 20 19 17 16 14 12 11 10 9 8 6
2 2 5 5 5 4 7 10 8 9 3 1 7 7 6 7 11 14 9 3 5 6 9 11 12 12 10 10 8 9 10 11 14 20 29 33 34 36 40 40 38 39 42 42 40 39 41 42 43 45 46 48 48 48 48 48 47 47 47 46 46 46 46 46 45 44 44 43 42 41 40 40 40 39 38 37 36 34 32 30 29 27 26 25 24 23 22 20 19 18 16 14 12 11 10 8 6
4 2 5 5 6 5 3 9 8 4 6 6 7 8 11 11 8 11 11 9 7 8 11 13 13 13 12 11 9 10 11 13 15 17 25 30 32 36 39 40 37 37 39 40 40 41 42 42 44 45 46 46 45 46 46 45 45 44 44 44 44 45 45 46 46 46 45 44 43 42 42 42 42 41 40 39 38 36 33 32 31 29 28 27 26 25 23 22 20 18 17 16 14 12 10 9 6
7 6 5 4 4 6 6 8 7 2 4 5 4 9 15 15 11 12 14 11 12 16 16 14 14 14 14 13 11 12 13 15 18 20 24 26 30 33 35 36 34 35 37 38 39 40 40 40 42 43 44 43 43 43 43 41 40 40 40 40 40 42 44 45 45 46 46 45 45 44 44 44 44 43 42 41 39 37 35 34 33 31 30 29 28 27 25 24 23 20 18 17 16 14 11 9 7
10 7 5 5 5 6 8 11 9 4 6 6 9 16 15 15 14 13 15 12 10 18 19 15 13 13 13 12 12 13 15 17 19 24 26 23 25 29 30 31 31 33 35 36 37 38 39 39 39 41 43 43 42 41 40 39 39 38 38 37 39 42 44 45 46 47 47 47 47 46 46 46 45 44 44 43 41 39 38 36 35 33 32 31 30 29 28 27 25 23 21 18 17 15 12 10 7
4 3 5 7 8 9 9 12 10 0 3 8 11 19 17 15 15 12 14 13 10 15 20 19 15 13 12 13 15 15 16 18 17 22 25 22 21 23 24 26 27 29 32 34 36 38 40 40 40 42 43 43 42 42 42 43 43 40 39 41 45 46 46 46 47 48 49 49 49 48 49 48 46 46 46 45 43 41 40 38 37 35 34 33 32 31 29 27 26 24 22 19 17 15 13 10 8
5 5 7 7 7 11 10 11 12 1 1 7 8 17 20 14 14 12 12 14 16 18 18 19 19 17 14 13 16 17 16 15 13 15 19 18 18 19 21 24 25 28 31 35 37 40 40 40 42 43 42 42 44 46 46 47 48 47 46 48 49 48 48 49 50 52 52 51 50 50 49 49 48 48 47 46 44 43 42 40 39 38 37 36 33 31 30 28 28 26 24 22 19 16 14 11 10
8 5 6 7 4 9 9 8 10 3 1 7 8 16 18 13 14 14 15 17 18 19 16 14 16 18 18 14 14 16 15 13 12 13 13 12 14 18 20 23 26 29 31 33 37 38 37 40 43 42 41 43 46 47 47 48 48 48 45 44 43 41 43 47 48 49 50 50 50 50 49 49 49 48 48 47 46 45 44 43 41 40 39 38 36 34 32 31 29 28 26 24 21 18 14 12 11
6 5 6 8 3 5 8 5 6 4 3 7 10 16 15 11 13 15 18 19 16 16 14 13 15 17 21 20 15 12 13 14 15 14 11 8 10 14 16 20 24 26 27 30 34 35 37 41 44 43 43 45 46 47 48 46 42 41 38 34 34 34 35 39 40 41 45 46 47 49 50 50 49 49 48 48 48 47 45 44 43 42 41 40 38 36 35 34 32 30 28 25 22 19 16 13 12
7 8 7 10 9 10 10 5 7 7 5 5 7 14 13 7 9 10 10 10 11 12 14 15 15 17 20 20 15 10 11 14 14 14 14 9 6 9 12 16 19 22 27 30 33 36 38 41 43 43 43 43 44 45 45 41 37 36 34 28 27 28 28 30 34 37 39 42 45 49 50 49 49 49 49 49 49 48 47 46 45 44 43 41 40 38 37 36 34 32 30 27 25 22 19 15 14
8 6 10 16 15 11 10 8 7 6 5 4 5 8 10 2 6 7 5 2 6 8 11 16 17 18 17 12 11 11 11 10 10 13 13 8 6 8 11 14 17 22 28 31 33 35 38 39 39 40 41 42 43 43 43 41 39 39 38 33 30 30 28 32 40 41 41 45 48 48 49 50 50 50 50 50 49 49 48 48 47 46 45 43 42 40 38 37 35 33 31 29 26 23 20 17 17
9 5 11 15 12 9 10 9 4 2 5 3 4 1 10 7 3 8 7 3 8 9 10 16 18 15 8 4 7 10 10 7 7 9 8 7 6 7 9 14 19 24 28 29 30 32 35 35 36 39 41 41 41 42 43 43 42 42 43 41 39 37 36 40 45 45 46 48 47 46 48 50 51 51 51 50 50 50 49 49 48 46 45 44 43 41 40 38 36 34 32 30 27 25 22 20 20
7 4 7 9 8 9 7 5 4 4 4 3 2 4 6 13 5 5 7 6 8 11 13 17 15 8 7 6 8 9 10 8 5 6 6 6 7 7 10 16 20 23 25 25 26 30 33 34 36 38 39 40 41 42 44 45 45 44 44 43 41 42 42 41 41 42 43 45 44 45 47 48 49 50 50 50 50 50 50 49 48 47 46 45 44 43 41 39 37 34 33 31 28 26 24 22 22
6 2 5 5 5 5 4 4 5 1 4 4 4 6 2 12 6 3 1 4 7 13 16 17 12 8 8 8 9 10 9 4 4 4 6 6 8 9 13 17 19 19 20 21 24 27 29 31 33 34 37 39 39 41 44 46 47 45 44 43 41 43 42 36 34 36 38 39 41 42 43 44 47 48 49 50 50 50 50 49 49 48 47 46 45 44 42 40 38 36 35 33 31 28 26 23 23
4 6 5 4 4 2 4 4 3 3 4 5 6 6 2 11 7 4 3 2 7 11 12 12 9 8 9 9 10 10 5 5 3 2 6 7 9 11 13 15 16 15 15 18 20 22 23 26 28 31 35 36 37 40 43 46 46 44 43 44 42 40 36 30 29 32 34 36 38 38 39 41 43 46 48 48 49 50 50 50 50 50 49 48 47 45 44 42 40 38 36 34 32 30 28 25 23
3 5 4 5 4 3 4 1 4 2 6 6 10 12 6 7 6 4 3 4 6 6 7 9 8 7 10 8 7 7 6 5 4 5 7 7 9 13 13 13 13 11 10 13 15 17 19 22 26 29 31 33 36 39 42 44 45 45 45 45 44 39 34 31 30 32 35 36 36 37 38 40 42 44 46 47 48 49 50 50 51 50 50 49 48 47 46 44 41 39 36 35 33 31 30 28 25
4 3 3 3 3 3 4 4 3 2 8 5 10 13 10 9 6 2 4 6 5 6 6 9 9 8 8 6 6 6 5 5 6 6 7 7 9 11 12 12 11 8 8 10 12 14 17 20 24 27 29 30 33 36 40 43 44 46 46 45 43 40 36 36 36 35 37 38 38 37 38 39 40 41 43 46 49 49 49 50 50 50 50 50 50 48 47 45 42 39 38 36 35 33 31 30 28
4 3 3 1 4 3 2 3 0 4 8 5 6 7 6 11 8 5 10 12 9 8 7 8 9 8 8 7 8 7 6 6 6 6 7 6 7 8 8 10 9 7 8 9 10 12 15 19 23 26 29 30 31 33 37 41 43 46 46 43 41 40 38 39 39 38 38 40 40 39 40 40 39 41 45 48 50 50 50 50 50 51 51 51 50 49 47 45 43 41 39 38 37 35 33 32 31
6 6 5 5 2 2 4 3 2 5 6 3 3 3 3 7 6 7 13 15 11 7 7 9 8 7 7 8 8 7 7 6 5 5 6 6 6 6 6 8 9 8 8 8 10 12 14 17 21 25 28 29 31 33 35 39 43 45 44 42 41 40 39 40 40 39 39 41 41 42 43 44 44 47 50 51 52 51 51 52 52 52 51 51 50 49 48 46 44 43 41 40 39 37 35 34 32
6 5 5 5 5 4 5 4 5 6 4 2 1 3 4 3 3 7 11 9 7 4 5 4 4 6 6 6 8 7 7 6 5 5 5 6 6 6 6 8 8 8 8 8 9 11 13 16 20 25 27 29 32 34 36 39 42 41 40 41 41 41 42 41 41 41 41 42 43 43 44 45 47 49 49 49 49 50 51 52 51 51 51 50 49 49 48 47 45 44 43 42 40 39 37 35 34
3 3 3 3 5 4 3 4 4 3 2 1 2 4 5 4 6 8 7 8 8 6 4 5 5 6 4 5 7 6 6 6 7 6 6 7 7 7 6 7 7 8 8 8 9 10 13 15 19 24 28 30 32 36 39 40 39 37 38 40 41 41 41 41 41 42 43 44 44 44 44 45 46 46 46 46 47 48 50 50 49 50 50 49 49 48 48 48 47 45 44 43 42 40 38 37 35
1 3 3 4 3 4 2 5 1 1 4 5 5 6 6 5 8 6 3 5 6 6 6 4 7 6 4 5 7 5 6 7 8 7 7 7 7 7 7 5 5 7 8 9 10 10 12 14 18 22 26 29 32 36 38 37 37 36 38 39 40 40 42 44 45 44 42 40 40 42 43 44 45 45 45 46 46 47 48 49 49 49 49 49 48 48 48 48 47 46 45 45 44 42 40 38 37
4 3 4 2 1 2 1 2 1 2 7 6 6 12 10 6 8 5 6 9 8 5 5 5 6 5 5 7 5 5 6 7 7 7 7 7 6 8 8 3 4 8 10 12 12 12 12 14 16 20 24 28 32 34 34 35 36 37 38 39 39 40 42 43 44 42 40 38 38 40 42 43 45 45 45 44 45 46 46 47 48 48 48 48 48 48 47 47 47 46 45 45 44 42 41 39 38
4 3 2 1 2 3 1 2 2 5 8 5 6 12 10 7 10 9 10 14 12 6 4 6 6 6 6 6 6 6 7 6 7 7 6 5 5 6 7 11 13 13 14 16 17 16 15 16 17 20 23 27 28 29 30 32 34 35 36 37 38 39 40 40 40 39 38 39 40 41 41 42 42 42 43 43 43 45 45 46 47 47 47 47 47 47 47 46 46 45 45 44 43 42 41 40 39
0 1 2 1 2 3 2 1 1 4 8 7 7 9 7 7 10 11 11 11 9 7 5 6 7 8 7 5 6 7 7 7 7 7 8 8 8 11 18 22 20 18 20 23 23 20 20 20 21 21 23 24 25 26 28 31 33 34 35 36 37 39 40 39 37 35 37 40 42 41 42 42 41 41 41 42 43 45 46 46 47 47 47 47 47 47 46 46 46 45 45 44 43 42 42 41 40
1 1 3 2 2 1 2 2 1 3 7 7 7 8 7 6 7 9 8 6 5 7 7 8 8 6 6 5 5 6 7 8 8 9 11 14 15 19 24 26 24 23 26 28 28 26 24 23 23 23 23 23 23 25 28 31 33 34 35 37 38 39 39 39 37 36 37 39 40 42 43 42 42 42 43 43 44 45 46 46 47 47 47 47 47 47 47 46 46 45 44 43 43 42 42 41 40
5 5 6 7 6 3 4 6 4 4 6 7 8 9 7 3 6 9 8 5 5 7 8 9 8 7 7 6 6 6 6 8 12 13 14 15 14 16 23 28 27 26 27 27 28 28 28 27 26 24 24 24 24 25 27 30 31 32 35 38 38 37 37 37 37 38 39 39 40 42 43 42 43 44 44 45 45 45 45 46 46 46 47 47 47 47 47 47 47 46 44 43 43 43 42 41 40
Wind_Direction
299 299 340 335 316 296 346 50 67 323 70 290 272 220 260 237 253 274 265 255 227 253 226 160 137 145 131 176 203 194 181 172 173 148 208 248 255 180 174 177 176 171 171 170 173 174 170 167 167 165 166 166 165 167 168 170 169 169 167 166 166 165 164 160 157 156 157 156 151 150 148 145 145 142 143 140 140 138 125 125 125 116 114 115 110 115 113 112 131 137 125 121 106 77 73 68 58
327 314 8 32 14 29 249 68 94 332 40 314 280 184 258 298 295 243 232 213 211 265 314 138 136 118 79 134 179 180 239 211 190 176 245 263 190 181 175 180 176 172 174 172 175 176 172 170 169 168 169 168 168 169 167 168 169 168 165 166 166 163 163 159 157 156 154 154 151 150 150 150 151 149 149 143 145 145 141 156 150 125 125 130 115 118 114 111 141 160 157 153 74 7 3 357 356
50 355 9 138 25 46 79 42 107 48 55 279 279 233 259 287 238 240 231 217 224 271 319 102 112 332 156 300 253 163 252 264 212 210 281 197 182 181 177 180 175 174 176 175 177 178 176 174 174 172 172 176 176 176 173 173 174 173 171 171 172 167 167 165 161 161 158 156 157 157 157 157 158 154 158 163 163 164 173 185 179 151 152 166 151 158 167 170 197 207 219 232 267 304 308 303 307
63 34 353 208 52 33 67 36 141 127 195 237 271 259 227 215 238 253 251 239 244 262 330 113 130 227 174 235 247 186 253 271 219 191 216 201 193 179 177 176 173 176 178 178 180 181 180 180 182 177 176 183 187 188 184 184 183 181 181 179 181 176 175 174 170 171 169 164 163 163 164 174 180 174 171 170 170 179 188 183 177 161 169 180 162 189 207 215 222 229 239 247 259 278 285 288 291
52 45 10 82 97 37 93 63 105 128 217 191 222 265 230 216 243 266 274 276 255 199 147 106 246 285 169 222 201 218 239 262 235 201 213 211 192 178 176 173 173 178 181 181 183 185 185 187 189 182 180 186 194 198 192 194 192 191 191 187 191 190 188 186 183 184 185 183 181 180 177 186 195 192 184 169 170 177 178 158 150 142 147 165 171 209 220 227 234 241 246 247 251 264 273 276 277
30 56 35 63 93 91 118 206 190 212 228 169 200 262 248 225 229 264 290 290 247 194 169 121 219 327 281 255 202 211 217 122 180 202 220 217 188 180 176 173 175 180 182 184 186 188 191 193 191 184 183 189 196 199 194 199 198 200 200 195 198 199 197 196 196 198 197 196 197 201 198 194 195 192 181 173 172 166 165 167 169 162 164 184 200 218 223 229 232 234 236 239 248 257 263 266 267
27 41 25 63 58 31 119 217 214 238 241 175 194 254 268 253 205 268 316 297 231 212 184 206 161 98 259 284 266 240 215 198 155 206 219 204 185 181 178 175 178 182 184 186 188 191 194 194 191 188 185 190 197 201 200 203 201 202 203 199 200 202 199 200 202 203 202 198 196 198 197 192 187 182 177 171 165 165 181 193 195 193 195 200 206 212 211 218 223 221 227 236 246 249 250 255 259
52 57 3 92 72 8 106 254 242 220 248 221 218 242 266 266 180 290 305 225 229 239 203 257 140 128 268 337 272 256 226 218 224 234 214 199 185 181 181 179 180 184 186 188 190 193 195 196 195 193 188 188 195 199 200 201 200 199 197 195 196 199 196 195 195 195 193 189 187 186 185 184 182 175 171 164 163 178 194 198 196 196 198 198 199 202 197 193 193 200 209 217 225 227 234 242 249
42 38 59 93 137 346 9 289 272 234 254 263 260 251 266 262 192 249 260 254 253 228 242 227 159 183 283 351 260 279 274 222 214 221 210 200 187 183 184 183 184 185 187 191 193 195 196 198 198 195 189 187 191 194 197 196 196 195 192 191 192 194 191 188 186 185 183 179 176 175 175 176 175 167 165 166 174 186 187 185 184 186 186 186 187 184 175 163 162 171 179 183 186 196 208 223 243
32 27 147 88 121 305 312 276 259 255 252 256 270 259 263 249 193 220 230 262 243 197 275 197 160 220 272 300 260 281 255 214 207 215 213 198 187 185 187 186 187 186 187 191 194 197 198 199 198 195 191 188 189 191 194 193 193 193 191 190 191 190 187 185 182 181 178 175 174 171 170 170 169 168 172 178 184 184 178 176 174 172 170 167 162 156 151 146 145 146 148 152 154 159 159 154 158
32 355 102 90 72 264 261 258 266 268 273 293 285 265 258 223 174 222 213 271 249 223 276 124 173 226 233 284 258 248 226 210 205 211 211 193 186 188 189 188 190 191 191 191 193 197 198 198 196 194 191 189 190 190 192 192 192 192 190 189 190 189 186 183 181 179 177 176 175 172 172 174 177 181 185 186 183 179 176 173 168 164 157 151 147 145 144 144 145 142 139 136 134 129 114 82 61
75 336 63 98 178 219 224 252 278 283 298 305 283 293 306 157 149 221 208 244 243 269 243 182 194 171 142 278 263 267 260 224 203 206 208 189 186 189 190 190 192 195 195 193 193 195 197 197 194 193 191 191 190 191 193 192 192 191 190 190 189 188 185 183 183 179 177 178 178 179 182 187 190 191 191 186 181 176 172 168 164 159 152 149 148 148 148 148 148 145 144 137 132 129 118 87 67
115 138 86 136 196 185 227 250 280 308 313 277 249 296 26 137 188 223 186 219 206 345 257 211 162 100 200 252 289 308 283 228 200 197 200 188 187 188 191 193 193 196 198 197 195 195 197 197 196 195 193 193 192 191 194 194 193 191 190 190 188 188 186 186 187 183 185 188 190 192 194 196 196 193 190 185 179 172 167 163 160 157 154 155 154 155 154 152 150 145 141 136 134 129 119 98 84
137 147 112 183 218 112 213 265 293 312 287 261 255 297 323 190 225 201 148 223 241 203 246 212 145 100 255 262 314 303 295 215 193 192 191 186 187 188 192 194 196 197 199 200 199 199 199 199 198 198 196 194 194 193 195 196 195 192 190 190 190 189 186 187 191 194 200 201 201 201 200 199 196 191 187 183 177 171 166 163 160 159 160 160 159 157 153 149 143 138 135 133 132 125 117 107 95
141 135 92 129 337 341 215 238 269 151 258 262 262 309 299 247 174 154 183 209 255 218 210 211 157 184 215 198 255 262 303 196 184 186 184 184 186 188 193 195 199 200 201 203 203 204 202 202 201 201 199 195 196 194 196 199 198 195 193 194 195 191 190 193 200 206 207 205 205 204 202 198 193 189 185 182 179 175 171 167 164 163 163 162 161 156 150 148 142 139 136 133 130 120 114 107 101
119 112 69 74 257 295 223 215 173 157 255 247 262 325 311 280 159 174 226 183 271 272 152 213 184 211 187 183 220 262 303 187 178 180 178 180 184 189 194 196 201 202 204 207 206 208 205 205 204 204 203 199 199 197 198 202 201 201 200 202 203 201 203 206 208 209 207 205 206 205 202 198 195 191 188 186 182 179 176 172 169 167 169 166 163 159 156 155 150 153 147 146 146 133 132 131 138
82 85 78 302 213 214 210 200 191 202 261 268 300 14 263 301 287 217 244 127 254 271 255 239 227 225 197 201 260 308 203 175 173 174 172 176 182 187 195 198 202 204 206 208 209 209 208 208 207 208 206 203 202 200 202 204 204 206 206 208 209 210 210 211 209 208 208 208 208 205 202 200 198 194 191 188 183 181 178 175 174 172 173 170 167 165 164 165 166 173 173 176 183 189 195 198 212
70 90 128 229 202 202 192 191 202 194 262 270 300 44 186 285 294 283 357 340 272 275 272 270 280 261 233 242 288 282 166 170 173 172 171 176 181 187 197 200 203 206 208 209 211 211 210 211 211 210 209 207 205 203 206 206 207 208 209 211 211 212 211 210 210 209 210 209 208 205 203 202 199 196 192 189 185 182 180 178 177 176 175 173 171 171 173 176 180 186 189 194 192 195 197 196 201
109 119 159 231 204 214 199 188 201 205 238 266 290 296 208 248 269 9 281 278 303 295 279 276 276 269 258 243 222 186 171 173 177 176 178 180 186 192 198 202 204 208 210 211 212 211 212 213 212 212 211 209 207 206 208 209 209 209 210 211 211 211 210 210 210 210 211 209 207 204 202 200 198 195 192 189 186 183 182 181 180 180 179 178 179 180 181 184 188 192 193 195 194 191 193 190 192
170 129 198 243 218 233 234 207 212 222 243 294 290 285 210 244 247 124 253 282 291 261 260 257 255 259 256 226 178 181 177 180 184 185 188 191 195 197 198 200 205 210 212 213 212 211 212 213 213 213 212 211 209 208 209 210 210 210 210 211 211 210 209 211 211 211 211 208 205 203 201 198 196 194 191 189 188 185 184 183 183 182 181 181 183 185 186 187 189 193 191 188 189 185 185 185 183
180 148 206 235 199 235 241 217 226 236 236 251 276 320 290 263 201 203 230 296 284 247 235 237 243 249 248 225 183 184 183 188 193 195 199 200 203 205 206 206 208 213 213 214 214 213 213 213 214 213 213 212 211 210 210 211 210 210 211 211 210 210 211 211 212 212 209 207 205 203 201 198 196 193 192 190 188 188 186 184 183 182 182 181 182 185 185 187 187 189 189 184 182 179 178 178 172
172 211 228 227 164 234 246 213 228 226 185 228 269 299 284 280 213 210 194 232 261 249 221 221 234 244 244 223 190 188 193 198 198 204 208 207 209 211 214 214 214 216 215 216 216 216 215 214 214 213 213 213 213 213 212 212 211 212 212 211 210 210 212 212 212 210 208 207 205 204 201 198 196 194 193 190 189 188 187 185 183 183 183 182 180 183 183 182 184 183 185 183 181 180 177 175 168
236 251 252 242 195 230 256 214 216 185 192 248 247 279 300 307 280 221 179 220 250 253 227 217 232 239 241 199 171 190 203 205 205 208 209 209 212 214 215 216 217 216 216 218 218 217 216 215 214 214 214 213 214 214 213 213 213 214 214 213 212 210 212 213 212 209 207 207 206 206 203 200 198 196 194 191 190 189 189 188 185 184 183 182 179 181 181 176 178 178 180 183 181 181 178 176 171
240 260 258 250 213 227 253 253 248 221 243 252 259 321 294 266 277 237 182 225 252 258 244 235 252 245 228 192 186 205 206 207 213 213 212 212 214 216 217 217 218 218 217 219 219 218 218 217 215 215 215 215 214 214 214 215 214 215 215 215 214 212 213 214 213 209 208 208 207 207 204 202 200 198 196 193 192 191 191 190 187 185 183 183 179 177 179 174 173 175 177 181 179 178 176 174 169
219 235 245 252 228 236 261 271 269 263 257 257 285 291 270 253 265 282 244 241 255 261 259 245 258 257 231 223 218 216 215 216 221 221 221 220 221 222 223 222 220 220 221 221 219 219 220 218 217 216 216 216 216 215 215 215 215 215 216 216 215 214 214 215 213 210 209 208 208 208 206 204 202 201 199 196 195 193 192 192 189 187 184 183 181 176 177 175 172 172 176 179 178 177 174 171 167
216 221 245 267 268 265 275 277 256 253 251 221 208 260 267 266 271 271 252 243 254 261 268 255 251 257 240 234 230 219 221 223 222 225 226 226 226 228 229 226 222 223 224 222 221 221 221 219 219 218 217 217 217 216 216 216 216 216 217 218 217 216 215 215 213 212 211 210 209 209 208 206 205 204 202 200 198 196 194 193 190 188 185 182 182 176 173 175 173 172 175 176 175 175 175 171 165
194 206 260 254 264 276 257 257 250 242 251 204 194 251 266 285 32 267 246 228 247 263 270 265 243 250 244 236 235 225 225 228 225 223 227 227 224 228 230 225 223 226 225 223 223 223 221 220 221 220 218 218 217 217 217 217 218 218 219 219 218 217 216 215 213 213 213 212 211 211 210 208 208 206 205 204 201 199 196 194 191 188 185 182 180 177 172 172 174 173 173 175 175 174 175 173 168
177 187 298 274 281 290 243 238 248 218 253 207 186 246 276 308 180 250 258 239 209 266 275 275 248 248 248 241 239 229 230 235 228 219 222 222 221 225 225 223 224 225 224 224 225 222 221 222 221 221 219 218 218 218 218 219 219 219 220 220 220 219 217 215 214 214 214 213 213 212 212 209 209 208 208 208 204 202 199 195 192 189 187 182 179 178 175 174 175 175 174 175 176 174 176 174 169
273 76 320 290 321 306 261 245 236 185 217 184 160 252 284 263 238 246 259 256 174 255 275 279 265 256 251 246 243 236 238 238 225 219 226 227 227 225 225 227 226 224 225 226 224 222 223 222 221 221 219 219 219 219 219 220 221 220 221 221 221 219 218 217 215 215 215 215 214 213 213 212 211 210 210 210 207 205 202 198 194 191 188 184 181 179 178 178 178 178 177 177 178 177 179 176 174
296 64 284 294 335 306 264 180 106 171 199 161 147 267 251 244 259 260 261 253 236 256 264 271 271 267 260 251 245 246 244 234 220 226 231 233 234 230 231 233 228 227 228 225 223 223 224 222 221 221 219 220 219 220 219 220 221 221 221 222 221 220 219 218 217 217 216 216 215 214 214 214 213 212 212 212 210 207 204 200 197 193 189 187 184 182 182 181 180 182 181 179 180 180 182 181 181
306 299 233 304 302 284 286 132 120 264 234 155 156 259 243 244 266 270 272 211 226 253 261 267 271 270 269 260 249 252 251 233 230 235 236 237 238 234 235 237 231 230 228 224 226 224 223 222 221 220 220 220 219 219 219 219 221 221 221 221 221 221 219 219 218 217 218 217 216 216 215 215 215 214 213 213 212 210 206 201 199 195 191 189 187 184 184 183 183 184 185 184 183 180 185 187 184
1 275 279 295 207 270 305 287 204 225 270 130 162 240 255 250 258 269 293 150 202 243 262 265 271 272 271 267 258 256 260 249 241 241 242 241 239 237 237 239 233 229 228 227 227 224 222 222 220 220 220 220 219 219 219 219 220 220 221 221 221 220 219 219 219 218 219 218 217 216 217 216 216 215 214 214 214 212 207 203 200 196 194 192 189 186 185 186 185 185 186 187 187 184 187 191 187
328 216 252 261 237 271 313 298 245 202 201 185 209 234 266 256 253 269 297 282 209 230 260 264 268 272 270 268 263 260 268 269 257 245 243 242 240 238 238 239 235 231 231 229 226 223 222 221 219 220 220 220 219 217 217 217 218 219 219 220 220 220 219 219 219 219 219 218 217 217 218 217 217 216 215 214 215 213 208 205 201 198 197 194 191 188 187 188 189 188 187 185 188 190 189 192 187
280 224 238 248 246 258 294 297 291 163 164 216 233 241 252 256 265 283 293 292 278 261 262 265 265 269 268 266 263 261 263 265 264 253 245 243 241 241 240 239 237 234 234 230 226 225 224 221 219 219 220 220 218 216 216 215 216 217 218 219 218 218 219 219 219 219 218 218 218 218 219 218 218 217 216 215 215 213 210 206 203 200 198 196 193 191 189 189 190 192 191 187 186 190 192 191 189
231 227 239 257 243 248 255 265 287 337 223 226 259 255 254 263 271 276 278 279 283 277 269 264 263 265 265 266 263 258 258 258 261 260 253 246 244 244 243 240 237 235 235 231 228 226 224 222 219 218 218 217 216 215 213 212 212 214 215 216 217 218 218 218 219 219 218 219 219 220 219 219 218 217 216 216 213 211 210 208 205 202 200 197 195 193 190 189 190 191 194 192 186 187 193 190 187
225 229 239 258 257 247 240 248 260 297 285 262 263 264 262 267 267 267 272 265 261 272 276 271 264 261 259 261 259 256 257 256 257 263 263 254 247 247 246 243 238 235 234 231 227 224 221 220 217 217 216 215 212 210 207 206 207 209 210 211 213 216 217 217 218 219 219 220 220 220 220 219 219 217 216 215 212 211 211 209 206 204 203 200 198 196 194 193 192 191 194 195 191 187 189 190 187
266 262 255 253 261 264 254 265 270 196 288 257 251 268 271 267 267 262 269 271 256 260 270 273 269 265 259 256 258 258 256 256 260 267 269 264 256 251 246 243 239 234 231 228 224 222 220 217 215 216 215 211 207 204 202 202 202 201 202 207 211 213 214 215 217 218 219 220 220 220 219 219 218 217 216 214 212 211 211 211 208 206 205 203 202 201 199 197 194 194 193 192 194 191 186 187 187
282 255 267 264 252 266 266 273 279 275 247 259 248 271 273 267 269 264 261 267 261 253 255 266 273 273 265 255 257 259 257 262 270 271 269 264 258 251 243 237 231 228 226 224 222 221 219 215 215 216 212 208 207 206 203 203 204 202 203 207 210 210 210 211 214 216 218 219 219 218 219 218 218 217 216 215 212 211 211 211 210 208 207 205 204 203 201 198 196 196 195 191 190 190 188 186 183
254 252 277 275 254 278 276 265 284 320 223 277 282 275 273 265 261 255 248 248 251 253 251 256 268 272 272 262 254 259 265 274 274 268 269 263 253 246 238 232 229 229 228 225 223 221 216 214 215 215 211 208 208 207 205 206 206 206 206 208 209 208 210 212 213 215 216 216 217 217 218 218 218 218 217 215 214 213 212 212 211 210 209 207 204 203 201 200 198 197 198 197 191 185 185 185 183
234 225 255 269 253 274 270 265 316 328 236 275 292 284 279 262 251 246 244 246 251 262 264 255 251 257 265 262 255 261 271 275 276 275 278 269 252 246 237 234 234 231 229 226 222 217 214 215 215 213 211 210 209 208 207 207 206 206 207 210 210 208 211 213 213 216 215 215 215 216 217 217 217 218 217 217 215 214 214 213 212 211 210 209 207 204 202 201 201 200 199 200 196 187 180 180 183
230 209 226 256 251 247 255 287 337 320 284 300 306 296 288 236 222 241 248 253 256 262 264 261 256 248 252 260 266 267 263 268 278 283 284 285 280 274 260 250 244 235 230 228 224 219 217 217 215 212 211 210 209 208 206 204 202 200 201 204 205 205 209 209 210 214 213 213 214 215 216 216 217 218 218 218 217 216 215 214 214 212 211 210 209 208 206 205 205 203 201 201 202 199 190 180 179
258 212 211 239 252 256 264 293 338 334 306 338 9 313 295 197 161 237 277 292 254 251 250 254 256 250 246 256 271 268 258 260 270 275 285 313 338 314 286 266 252 241 238 236 231 225 222 219 216 213 211 210 209 207 203 200 199 197 195 193 192 194 199 205 208 209 209 211 214 214 215 215 216 217 218 218 218 217 216 215 214 214 213 211 211 210 209 208 207 205 205 204 205 206 200 187 179
277 232 208 230 248 259 264 276 305 292 261 289 62 346 286 295 174 223 245 234 248 252 247 247 249 256 271 271 261 269 272 266 261 273 304 335 327 308 283 265 253 248 249 246 237 230 225 221 217 213 211 210 208 205 202 200 198 198 197 197 196 196 200 207 210 209 209 211 212 213 214 215 215 216 216 217 218 218 217 216 215 215 214 213 212 211 210 211 211 209 207 206 207 207 203 194 186
270 232 195 209 225 237 240 238 229 242 276 288 135 133 280 287 267 211 216 208 253 265 257 255 256 282 323 290 260 266 271 279 291 303 327 317 290 281 269 265 261 260 260 253 241 235 229 223 219 215 211 210 207 205 202 201 200 199 200 201 203 205 207 210 210 208 210 210 209 211 213 213 214 214 215 216 217 217 217 217 216 215 215 215 214 214 213 213 213 210 207 206 206 207 206 203 195
251 169 149 170 196 217 172 171 212 260 336 292 199 140 249 275 278 59 167 202 247 259 254 259 270 298 302 282 274 267 268 319 11 329 310 290 274 270 269 273 274 273 269 259 249 243 235 227 221 216 212 210 207 204 202 203 203 202 201 203 206 210 212 212 209 207 208 208 208 209 210 211 212 212 214 216 216 216 217 217 217 216 216 216 215 216 216 215 214 211 209 206 206 206 207 208 203
223 117 100 80 78 72 105 145 147 73 311 257 194 161 205 275 278 72 69 200 237 254 258 264 272 281 275 269 272 278 310 20 30 293 277 268 271 283 288 291 293 289 278 267 255 246 238 231 224 218 214 210 207 205 204 203 204 203 204 205 208 211 210 209 208 206 205 206 206 207 207 209 210 211 212 214 215 216 217 217 217 217 217 217 216 217 216 216 215 213 212 210 208 207 204 205 207
152 115 72 31 35 41 61 81 95 84 278 237 181 182 188 273 279 134 164 218 220 249 279 281 282 280 274 273 287 312 346 348 320 298 277 275 293 306 309 306 308 308 290 272 257 245 238 231 225 222 218 213 209 207 205 205 204 205 207 208 209 210 206 203 203 203 203 203 204 204 206 208 210 210 211 212 215 216 217 217 218 218 218 217 217 217 217 216 215 214 213 211 210 209 206 205 205
130 115 79 12 329 13 33 355 58 169 264 241 181 184 189 235 255 199 262 270 235 232 254 273 283 284 282 301 323 321 312 296 301 303 297 311 324 325 325 320 321 320 298 279 262 246 236 228 222 221 220 216 213 209 207 206 206 207 210 210 210 209 205 203 203 203 201 201 203 203 204 206 208 209 210 212 214 215 215 216 217 217 217 218 218 218 217 217 216 214 212 212 211 209 208 207 204
133 128 129 219 308 342 344 315 115 209 260 262 183 176 206 244 260 276 276 277 258 231 226 251 271 286 300 319 318 307 302 298 301 309 318 328 328 328 324 320 325 321 304 287 264 249 237 228 221 218 218 217 215 214 211 209 209 211 212 211 211 210 208 207 207 206 204 204 203 202 203 203 204 206 209 212 213 213 213 214 216 216 217 218 218 218 218 216 216 214 213 212 212 210 209 208 207
163 157 161 175 195 262 257 253 261 254 270 278 186 172 256 277 281 246 243 258 265 246 230 240 253 275 293 301 300 303 305 304 319 330 322 315 315 317 310 316 323 318 310 292 268 253 240 231 223 220 219 217 215 215 215 214 215 215 214 213 213 211 210 211 210 209 208 207 205 205 205 204 204 208 211 213 213 213 213 215 216 217 218 218 218 218 218 217 215 215 214 213 212 212 210 209 209
184 166 144 172 186 200 224 228 251 262 278 306 196 186 218 239 262 235 231 256 286 276 256 271 271 259 271 291 293 298 302 311 329 323 308 304 299 293 298 313 317 318 317 298 276 257 243 236 230 225 222 218 215 215 215 218 219 218 217 216 215 213 212 213 213 213 212 211 209 208 208 207 209 212 213 213 213 213 214 215 215 216 217 218 219 218 217 216 215 214 214 214 213 212 210 209 209
227 126 110 217 204 183 237 252 236 245 303 289 213 218 223 226 261 263 260 275 284 283 304 346 310 275 301 309 286 292 313 320 322 321 322 311 292 278 286 304 315 324 325 306 286 264 248 243 237 232 228 223 218 217 217 218 221 221 221 220 218 216 214 214 215 216 215 214 212 210 210 211 212 214 214 214 214 214 214 214 214 216 217 218 218 218 217 216 215 214 213 213 213 212 210 209 209
163 116 193 231 173 145 251 285 303 66 271 254 240 258 278 295 284 290 334 310 297 301 305 296 275 286 318 282 267 303 326 314 313 319 314 296 289 277 261 264 308 328 328 316 302 285 266 254 243 237 233 228 224 222 220 218 219 222 224 224 222 220 217 216 216 217 217 216 214 213 213 214 215 215 215 215 214 214 214 214 214 215 216 217 218 218 217 217 215 214 213 213 212 211 210 210 210
132 184 230 230 129 132 167 275 327 274 257 254 254 266 283 298 283 308 350 317 310 322 311 292 274 276 271 262 280 320 304 291 301 306 290 268 261 264 255 250 345 345 338 328 322 311 292 275 259 246 240 236 231 227 223 221 220 222 224 225 225 225 223 222 220 218 217 217 217 216 215 216 216 216 215 214 213 212 213 213 213 214 214 216 217 217 217 216 215 214 213 213 213 211 209 209 209
156 217 266 101 207 247 188 182 229 247 255 253 239 256 272 269 263 280 288 283 288 291 294 304 281 251 253 274 304 307 292 297 311 307 293 268 252 285 341 3 358 356 353 345 340 331 314 299 280 261 253 248 241 232 228 227 226 225 226 227 227 228 228 229 227 222 218 217 218 218 217 217 218 217 215 213 212 211 212 212 212 212 213 214 215 216 215 215 214 213 213 213 212 211 209 208 208
131 282 324 74 183 230 233 193 187 242 256 257 239 241 250 249 259 268 260 259 275 281 281 285 262 244 258 282 299 311 318 319 313 312 323 338 345 354 9 11 6 8 9 3 355 341 326 315 298 280 268 258 248 239 234 232 231 230 230 230 229 230 231 231 232 229 224 221 220 219 219 219 219 218 216 214 213 212 211 211 211 211 211 212 212 213 213 213 213 213 212 212 211 210 209 208 208
205 216 251 241 223 261 281 251 185 239 258 260 254 245 235 240 263 264 247 225 252 281 287 281 270 263 270 276 287 305 314 316 327 345 356 3 4 0 4 10 15 19 16 12 5 353 342 329 313 299 284 270 257 248 241 237 235 233 233 233 232 232 231 231 231 231 231 228 224 222 222 221 220 220 218 216 215 213 212 211 210 209 209 210 210 210 211 211 211 211 212 211 211 210 209 208 207
207 210 213 223 229 234 270 254 207 215 247 247 257 259 245 251 293 290 279 260 260 283 293 294 296 294 286 288 298 310 327 349 3 11 11 10 7 2 1 5 11 15 16 16 12 6 359 348 335 320 301 287 276 264 253 246 241 239 238 238 237 236 234 232 230 231 232 232 230 226 224 222 221 221 219 217 215 214 213 212 210 209 209 209 209 210 210 209 209 209 209 210 210 209 208 207 207
Height
809 809 808 809 808 808 810 812 825 834 836 842 843 839 829 825 826 822 818 814 814 810 809 810 810 811 812 814 811 809 808 810 811 818 817 801 798 799 800 802 803 805 807 808 811 812 814 816 817 819 820 821 822 823 824 825 826 826 827 828 829 830 831 831 832 833 833 834 835 835 836 837 837 838 838 839 839 839 840 840 841 841 841 841 841 841 841 841 841 841 841 841 840 841 841 841 842
808 809 808 809 807 808 815 817 833 843 840 843 841 837 828 826 826 817 814 812 810 809 812 811 809 810 809 809 808 809 807 804 803 804 802 798 799 798 799 802 803 805 806 808 810 812 814 815 817 819 820 821 822 823 824 825 826 827 827 828 829 829 830 831 832 832 833 834 835 836 836 837 837 838 839 839 839 839 840 841 841 841 841 841 841 841 841 841 841 841 841 841 841 841 842 842 842
808 809 808 808 808 810 818 821 834 847 846 845 836 830 829 823 817 810 810 809 809 812 813 811 810 810 808 809 809 809 806 803 804 802 801 799 798 796 798 801 802 805 806 808 810 812 813 815 817 818 820 821 822 823 824 825 826 827 827 828 829 829 830 831 832 833 833 834 835 836 836 837 838 838 839 839 839 840 840 841 841 840 840 840 840 840 841 841 841 842 842 842 842 842 842 842 842
809 808 809 808 811 813 820 828 837 845 845 849 836 822 823 816 810 808 808 809 811 812 810 810 810 808 809 809 808 808 804 800 799 799 799 796 795 795 797 800 802 805 807 808 810 812 813 815 816 818 820 821 822 823 824 825 826 827 828 828 829 829 830 831 832 833 834 834 835 836 837 837 838 838 839 840 839 840 841 841 840 840 840 840 840 840 840 841 841 841 841 842 842 842 842 842 842
809 809 809 807 814 818 825 838 845 845 836 839 831 815 815 812 809 808 809 811 812 811 809 810 809 808 808 807 806 805 800 796 796 796 795 793 794 795 796 799 800 803 805 808 809 811 813 814 816 818 820 821 822 823 824 825 826 827 828 829 829 830 830 831 832 833 834 835 836 836 837 838 838 839 839 840 839 840 841 840 840 840 839 839 840 839 840 840 840 841 841 841 841 841 841 841 841
809 809 809 807 815 819 827 839 843 841 829 828 824 812 810 810 811 810 809 809 810 811 809 809 809 809 807 804 803 799 796 795 794 794 794 793 794 795 797 798 800 802 804 807 808 810 812 814 816 817 819 821 822 823 824 825 826 827 828 829 829 830 831 831 832 833 834 835 836 836 837 838 838 839 839 840 840 840 840 840 839 839 839 839 839 839 839 840 840 840 840 840 840 840 840 840 840
809 810 812 813 819 822 831 838 837 836 826 824 822 810 806 809 813 811 809 808 808 809 810 810 809 810 807 803 800 795 793 793 793 793 792 793 793 795 797 798 799 801 803 805 807 809 811 813 815 816 819 821 822 823 824 825 826 827 828 829 829 830 831 831 832 833 834 834 836 836 837 838 838 838 839 839 839 840 839 839 839 839 839 839 839 839 839 839 839 840 840 840 840 840 840 840 840
809 812 817 819 826 831 836 839 837 837 827 823 821 812 806 808 813 811 809 809 808 807 810 810 809 810 806 804 801 793 792 792 792 792 792 793 793 795 796 798 799 800 803 804 806 808 810 812 814 815 817 819 821 822 823 825 825 826 827 828 829 830 830 831 831 832 833 833 835 835 836 837 837 838 838 839 839 839 839 839 839 839 839 839 839 839 840 839 839 839 839 839 839 839 839 839 839
809 813 820 822 831 837 839 839 837 836 828 822 819 812 808 810 813 811 809 809 808 807 808 808 808 809 806 805 800 792 792 791 791 792 792 793 793 794 795 797 798 800 802 804 806 807 809 811 812 814 816 818 819 821 822 823 824 825 826 827 828 829 829 830 830 831 832 833 834 834 835 836 836 837 837 838 838 838 838 838 839 839 839 839 839 839 840 840 839 839 839 839 839 839 839 839 839
813 816 822 827 834 839 840 839 834 830 824 821 818 811 808 809 810 810 810 808 807 806 807 809 807 807 805 804 798 792 790 789 791 791 791 792 793 794 795 797 799 800 802 803 805 807 808 810 811 813 815 816 818 820 821 822 823 824 825 826 827 828 828 829 830 830 831 832 833 834 834 835 835 836 836 837 837 837 837 838 838 838 839 839 839 840 840 840 840 839 839 839 839 839 839 839 839
817 820 823 830 837 838 838 835 831 826 822 823 817 807 807 809 809 809 810 808 807 806 806 809 806 805 806 803 796 790 789 789 789 790 791 792 793 794 795 797 799 800 802 803 805 806 808 809 811 812 814 815 816 818 819 821 822 823 824 825 826 827 828 828 829 830 831 831 832 833 833 834 835 835 836 836 836 837 837 837 837 838 838 839 839 839 839 840 840 840 840 840 840 840 840 839 839
820 826 826 833 839 837 840 838 831 827 823 821 809 802 808 810 808 805 806 806 805 806 805 804 802 801 805 802 795 789 789 789 789 790 790 791 793 794 796 797 799 801 802 803 804 805 807 809 810 811 813 814 815 817 818 819 820 822 823 824 825 826 827 828 828 829 830 831 831 832 832 833 834 834 835 835 836 836 836 837 837 837 838 838 838 839 839 839 839 840 840 840 840 840 840 840 839
821 829 828 833 843 842 843 839 832 831 822 813 806 805 810 807 804 802 803 805 805 805 801 800 799 799 802 799 792 789 789 788 789 790 790 792 793 794 796 797 799 800 802 803 803 805 806 808 809 810 811 813 814 815 817 818 819 820 822 823 824 825 826 826 827 828 829 829 830 831 832 832 833 834 834 834 835 835 836 836 836 837 837 837 838 838 839 839 839 839 840 840 840 840 840 840 840
820 827 826 833 848 845 841 835 828 831 819 808 806 807 809 805 802 803 803 803 802 801 797 797 798 800 801 797 792 789 789 788 789 790 790 792 793 795 796 797 799 800 801 802 803 804 805 806 808 809 810 811 812 814 815 816 817 819 820 821 822 823 824 825 826 827 828 829 829 830 831 831 832 833 833 834 834 835 835 835 836 836 837 837 838 838 838 839 839 839 840 840 840 840 840 840 840
819 825 827 833 844 842 838 834 829 832 820 806 807 808 807 803 802 803 802 801 798 797 797 796 797 799 798 795 791 788 788 788 789 790 791 792 794 795 796 798 799 800 801 801 802 803 804 805 806 807 808 810 811 812 813 814 816 817 818 819 821 822 823 824 825 826 827 828 828 829 830 831 832 832 833 833 834 834 835 835 836 836 836 837 837 838 838 839 839 839 840 840 840 840 840 840 841
819 823 829 834 840 841 836 834 834 832 818 806 808 809 804 800 801 801 798 799 797 796 797 795 795 795 793 791 789 787 788 788 789 790 791 793 794 796 797 798 798 799 800 800 801 802 803 804 804 806 806 808 809 810 812 813 814 815 817 818 819 820 821 822 823 825 826 826 827 828 829 830 831 831 832 832 833 834 834 835 835 836 836 837 837 838 838 838 839 839 840 840 840 841 841 841 841
818 820 831 835 839 840 832 831 831 822 810 804 805 806 804 800 800 799 798 798 796 797 796 794 793 791 789 788 787 787 788 788 789 790 792 793 794 796 796 797 797 797 798 798 799 800 801 802 802 804 805 806 807 809 810 811 813 814 815 816 818 819 820 821 822 823 824 825 826 827 828 829 830 831 831 832 833 833 834 834 835 835 836 836 837 837 838 838 839 839 839 840 840 841 841 841 841
819 825 833 833 835 832 822 819 818 813 808 803 802 804 806 802 798 797 797 797 796 796 795 793 791 788 787 786 786 787 787 788 789 790 791 792 793 794 794 794 794 794 795 795 796 797 798 799 800 802 803 804 805 807 808 810 811 812 814 815 816 817 819 820 820 821 822 824 825 826 828 829 830 830 831 832 832 833 833 834 834 835 835 836 837 837 838 838 838 839 839 840 840 841 841 841 842
821 830 834 829 826 820 814 811 809 810 806 802 802 804 806 801 798 798 797 796 796 796 793 792 790 785 784 785 786 786 787 787 787 788 788 789 789 789 790 790 791 791 791 791 791 793 795 796 798 799 800 802 804 805 807 808 810 811 812 813 815 816 817 818 819 820 821 823 824 825 827 828 829 830 831 831 832 832 833 833 834 834 835 835 836 837 837 838 838 839 839 840 840 840 841 841 841
821 828 831 822 816 814 812 811 807 806 804 804 803 804 805 800 798 798 797 796 795 795 790 789 788 783 780 783 785 785 786 786 785 786 785 785 785 784 785 786 786 785 784 785 788 790 792 794 795 797 799 800 802 803 805 806 808 809 810 812 813 814 815 816 818 819 820 822 823 825 826 827 828 829 830 830 831 831 832 833 833 834 834 835 836 836 837 838 838 839 839 840 840 840 840 841 841
822 824 821 815 816 814 808 807 805 806 808 807 804 805 803 798 799 797 795 798 794 789 785 784 783 778 777 780 783 784 784 784 784 784 783 783 782 782 781 780 780 780 782 784 786 787 788 790 792 794 796 798 800 801 802 804 806 807 809 810 812 813 814 815 816 818 819 821 822 824 825 826 827 828 828 829 830 830 831 832 833 833 834 835 835 836 837 837 838 839 839 839 840 840 840 841 841
821 819 813 811 817 813 802 803 805 806 808 807 805 804 799 796 798 794 795 799 788 779 778 778 776 774 774 777 780 782 783 782 783 782 781 781 780 779 779 779 779 780 782 782 781 783 785 787 790 792 794 795 797 798 800 802 803 805 806 808 809 811 812 814 815 816 818 819 821 822 823 825 826 826 827 828 829 830 830 831 832 833 834 834 835 836 837 837 838 838 839 839 840 840 841 841 841
818 814 811 810 813 810 802 802 803 805 806 804 803 801 799 797 794 789 792 791 778 771 772 773 771 772 772 774 777 779 780 779 778 777 776 776 776 775 775 776 777 777 777 777 778 781 783 785 787 789 791 792 794 796 798 799 801 802 804 806 807 808 810 811 813 815 816 818 819 820 822 823 824 825 826 827 828 829 830 830 832 832 833 834 835 836 836 837 838 838 839 840 840 840 841 841 841
818 815 811 808 810 808 802 802 804 805 804 801 802 802 798 796 793 788 786 782 772 768 769 771 770 770 772 772 773 773 774 774 773 771 770 770 769 769 770 771 772 774 774 774 776 778 779 781 784 786 787 789 791 793 795 796 798 800 801 803 804 806 807 809 811 813 815 816 818 819 820 822 823 824 825 826 827 828 829 830 831 832 833 833 834 835 836 837 837 838 839 840 840 841 841 841 841
818 813 809 807 808 805 801 803 805 804 802 801 803 801 791 789 793 786 780 778 771 766 766 769 768 768 770 769 769 770 770 770 769 768 768 767 767 769 769 769 772 773 771 771 773 774 775 778 780 782 783 786 788 790 792 794 795 797 798 800 801 803 805 806 809 811 812 814 816 817 818 820 821 823 824 825 826 827 828 829 830 831 832 833 833 834 835 836 836 837 838 839 840 840 841 841 841
811 808 807 806 805 802 800 801 801 802 799 799 801 797 786 786 789 779 771 770 765 764 765 765 767 766 766 766 765 766 766 766 765 765 764 765 768 769 767 768 770 767 766 769 770 770 772 775 776 778 780 783 785 787 789 791 792 794 795 797 798 800 802 804 807 808 810 812 813 815 816 818 820 821 823 824 825 826 827 828 829 830 831 831 832 833 834 835 836 836 837 838 839 840 841 841 841
807 807 807 804 804 802 801 799 798 801 798 795 797 793 784 786 791 776 761 762 762 763 763 762 765 763 761 763 762 763 763 761 760 761 762 764 766 763 761 764 763 760 763 766 765 767 770 772 773 775 778 780 782 784 786 787 789 791 792 794 796 798 800 802 804 806 807 809 811 813 815 816 818 820 822 823 824 825 826 827 828 828 829 830 831 832 833 834 835 836 837 838 839 839 840 840 841
806 807 806 802 803 801 799 798 797 798 793 789 792 792 787 788 791 773 756 758 762 762 760 759 762 760 759 760 759 760 759 756 757 760 760 758 756 754 755 756 755 756 759 759 759 764 766 767 769 772 775 777 779 780 782 784 785 788 790 792 793 795 798 800 802 803 805 807 809 811 813 814 816 818 820 821 822 824 825 826 826 827 828 829 830 831 832 833 834 835 836 837 838 839 839 840 840
806 807 807 801 802 798 789 790 792 793 788 784 790 795 791 784 776 761 753 757 761 762 759 757 757 756 756 756 756 757 754 753 756 756 752 749 747 748 748 747 749 752 751 753 758 760 761 763 766 768 772 773 775 776 779 781 782 785 787 789 791 793 796 797 798 800 802 804 806 808 810 812 814 816 818 820 821 822 823 824 825 826 827 828 829 830 831 832 833 834 835 836 837 838 839 839 839
805 808 810 804 806 797 782 784 790 790 787 783 787 794 787 774 762 751 752 757 760 761 758 755 753 752 753 753 753 752 750 751 751 748 745 743 743 744 743 742 745 747 748 752 755 755 756 760 762 765 767 768 770 773 775 777 779 781 783 786 788 790 792 794 796 798 800 802 804 806 808 810 812 814 816 818 819 820 822 823 824 825 826 827 828 828 830 831 832 833 834 835 836 837 838 838 839
806 810 810 811 814 797 779 784 791 789 786 782 785 792 784 769 759 748 749 756 757 757 756 754 751 749 750 749 749 748 745 745 743 740 739 738 739 740 739 738 742 742 745 748 748 750 753 755 758 759 761 763 766 768 770 772 774 777 779 782 784 787 789 791 793 795 797 799 801 803 805 807 809 811 814 815 817 818 820 821 822 824 825 826 827 828 829 830 831 832 833 834 835 836 837 837 838
810 812 809 813 814 800 785 782 784 783 783 785 786 786 781 771 759 748 749 755 755 755 753 752 749 747 747 745 745 744 740 739 737 735 734 733 734 735 734 734 736 738 739 741 742 746 749 751 753 755 756 758 760 762 765 768 771 774 776 779 781 783 786 788 790 792 794 796 798 800 802 804 807 809 811 813 815 816 818 819 821 822 823 824 826 827 828 829 830 831 832 833 834 835 836 837 837
813 815 810 808 809 806 796 779 773 777 780 783 783 778 774 766 756 750 752 754 754 755 753 750 748 745 744 742 741 740 737 734 732 729 726 727 728 728 729 729 731 733 733 735 738 741 743 745 748 750 751 753 755 759 762 765 768 771 773 776 778 780 782 784 787 789 791 793 795 797 800 802 804 806 808 810 812 814 816 818 819 821 822 823 824 825 827 828 829 830 831 832 833 834 835 836 836
812 815 813 810 808 806 801 782 769 776 779 778 780 778 769 760 755 753 752 752 754 754 752 749 746 743 741 738 738 737 734 730 724 718 718 720 721 722 723 725 727 729 731 732 734 735 737 740 742 744 747 750 753 756 759 762 765 769 771 773 775 777 779 781 784 786 787 790 792 794 796 798 800 803 806 808 810 812 814 816 817 819 820 822 823 824 825 827 828 829 829 830 831 832 833 834 835
803 805 806 808 808 805 805 791 772 773 778 778 782 779 768 762 760 758 753 753 753 749 745 744 741 739 737 735 735 732 728 725 716 708 711 715 715 717 718 721 724 726 728 729 731 732 734 736 738 741 744 746 750 753 757 760 764 766 768 771 774 775 777 779 781 782 784 786 788 791 793 794 797 800 802 804 807 809 811 813 815 817 818 820 821 822 823 824 825 827 828 828 829 831 832 832 833
795 797 799 801 801 800 797 788 775 776 781 782 780 771 764 763 760 757 752 751 752 745 738 736 735 734 733 731 729 726 723 717 709 704 707 711 711 714 716 718 721 722 724 726 727 729 730 732 735 737 739 742 746 750 753 757 760 762 765 768 769 770 772 774 776 778 780 782 784 786 788 790 793 796 798 801 803 806 808 810 812 814 816 817 818 819 820 821 822 824 825 826 827 829 830 831 831
797 800 801 800 801 796 788 782 776 780 783 778 772 763 759 759 756 754 750 746 749 745 737 731 729 728 727 726 723 720 717 709 704 704 705 708 709 711 714 715 717 719 720 722 722 723 724 727 729 730 733 737 740 743 746 748 751 754 758 759 760 762 765 768 771 773 775 777 779 781 783 786 789 791 794 797 799 802 805 807 809 811 813 814 815 816 818 819 820 822 823 825 826 827 828 828 829
800 801 802 803 804 795 784 781 775 780 784 776 770 763 756 756 753 751 750 746 742 737 734 730 725 722 719 719 718 713 709 704 703 705 703 705 707 709 710 711 712 713 714 715 716 716 719 722 723 725 728 732 734 735 738 740 741 743 745 747 749 754 757 760 762 765 768 771 774 777 779 782 785 787 790 793 795 798 801 803 805 807 809 811 813 815 816 817 818 819 820 821 823 825 825 826 827
802 805 807 805 803 793 783 780 777 782 784 774 772 764 751 752 750 745 743 739 731 725 726 728 724 719 713 711 711 707 704 704 703 702 700 703 705 705 706 707 707 708 709 710 711 713 716 718 718 721 723 725 727 730 732 733 736 739 742 744 747 751 754 755 758 761 764 767 769 772 775 778 780 783 786 789 792 794 796 799 801 804 806 808 810 811 813 814 815 816 817 818 820 822 823 824 825
803 805 807 802 799 794 785 781 780 784 783 776 775 764 744 742 743 738 733 728 724 722 722 724 722 716 709 702 702 704 704 702 700 699 699 701 703 703 704 705 705 706 707 707 708 710 711 711 712 715 718 719 722 725 727 731 736 740 744 746 749 752 753 756 759 760 761 763 765 768 770 773 776 779 782 785 788 790 793 796 798 800 802 804 806 807 809 810 811 812 814 815 817 818 820 822 823
798 800 803 796 792 792 788 785 784 783 780 777 778 759 729 726 732 728 726 727 726 725 723 720 717 711 704 699 700 704 705 702 701 699 698 700 704 705 705 706 706 705 705 703 704 705 705 706 708 711 713 716 718 721 725 730 735 739 743 746 750 752 754 756 756 756 757 759 760 762 764 768 772 775 778 781 784 787 789 792 794 797 799 801 802 804 805 806 807 809 811 812 813 814 816 819 820
791 794 796 788 785 789 789 789 792 790 782 781 785 765 727 718 729 725 720 726 725 723 723 716 708 701 698 701 703 702 700 701 703 700 698 702 706 707 706 705 704 702 700 700 701 702 702 703 706 708 710 712 715 718 722 726 729 732 735 738 741 744 747 747 745 746 749 752 753 757 761 764 768 771 774 777 780 783 786 788 791 793 795 797 799 801 802 803 805 806 808 809 810 812 813 815 817
792 789 786 784 788 791 790 792 796 792 784 785 789 779 750 725 723 723 718 721 718 714 717 709 698 695 697 703 703 698 698 699 701 701 701 705 705 704 703 701 699 697 695 697 698 699 700 702 703 705 707 708 711 714 717 721 723 726 728 729 731 733 734 733 734 739 742 745 750 754 757 759 763 766 769 773 776 779 782 785 787 790 792 794 796 798 799 800 802 803 805 806 808 809 810 811 813
791 786 782 781 786 789 792 795 797 793 787 788 785 784 778 746 721 722 719 719 720 714 711 704 698 699 700 702 700 697 697 697 700 702 704 705 702 700 699 696 694 693 693 695 696 697 697 699 700 702 704 705 708 710 713 716 717 720 722 725 727 726 726 727 731 737 739 743 747 749 752 755 758 762 765 768 771 775 778 781 784 787 789 791 793 794 795 797 800 801 803 804 805 806 807 808 809
785 788 789 786 788 790 793 793 795 800 795 789 783 782 786 756 721 724 728 724 722 713 705 701 699 702 700 698 697 695 695 699 703 703 702 701 698 696 694 693 692 692 692 693 693 695 697 698 700 700 702 703 705 707 709 712 713 716 719 721 722 722 724 728 731 735 738 741 744 746 749 752 755 758 762 765 768 771 774 777 780 783 785 787 789 791 793 795 797 798 799 800 801 803 804 805 806
784 790 790 790 794 793 797 795 793 801 794 784 784 781 779 750 712 719 732 725 716 706 703 703 700 701 700 696 695 694 697 702 704 702 701 699 695 694 692 692 693 692 692 691 691 694 696 699 701 701 701 702 704 705 706 708 711 713 715 716 717 719 724 728 731 734 736 739 741 744 746 749 752 756 758 761 764 767 770 773 775 778 780 783 785 787 789 791 793 794 796 797 798 799 801 802 803
786 787 783 786 792 791 798 797 792 798 787 772 774 773 774 754 718 715 723 717 713 707 704 702 697 695 696 696 698 700 702 702 702 701 699 697 696 694 692 692 693 692 692 691 691 692 694 696 700 702 703 703 703 704 705 706 708 709 709 710 713 717 721 725 727 729 732 734 737 740 743 746 749 752 755 758 761 764 766 768 771 773 776 779 781 782 784 786 789 791 793 795 796 797 798 799 801
785 783 782 783 787 789 795 797 795 796 780 764 765 768 772 755 721 714 716 714 717 713 705 699 693 691 693 699 703 704 704 701 700 700 696 697 696 694 694 693 692 692 691 691 690 691 692 694 696 699 702 705 705 705 704 704 705 705 705 707 709 713 717 719 721 723 726 729 732 736 739 743 745 749 752 754 756 758 761 764 767 770 772 774 775 778 780 783 786 788 790 791 792 794 795 796 798
786 785 787 789 792 792 792 795 798 794 775 765 770 773 768 744 716 714 715 709 708 709 707 702 696 694 696 701 703 700 700 699 699 698 697 698 697 695 696 694 693 692 691 691 691 690 691 692 693 695 697 701 704 706 705 705 704 703 703 705 707 710 713 714 716 718 720 723 726 730 733 736 739 742 744 746 748 751 755 758 761 764 766 768 771 774 777 779 782 784 786 787 789 790 791 793 794
786 782 783 790 793 793 791 791 795 787 769 768 777 775 762 737 715 710 707 700 700 703 706 705 702 704 703 703 701 697 696 696 698 699 698 698 697 695 695 693 692 692 691 691 690 690 690 691 692 693 693 696 699 703 705 705 703 702 703 705 706 708 710 711 713 715 717 718 721 723 725 728 731 732 734 737 740 745 749 751 755 758 761 764 767 770 773 775 778 780 781 783 784 786 788 789 791
781 773 774 778 775 776 776 772 770 764 756 768 781 771 750 730 712 704 701 701 702 702 705 707 708 708 706 703 699 696 695 696 698 698 697 698 697 695 694 693 692 691 690 690 689 690 689 690 691 691 691 693 694 696 699 701 702 703 704 705 705 705 706 708 710 711 712 714 715 717 719 721 723 725 728 732 737 741 744 747 750 753 757 761 764 766 769 771 773 775 777 779 780 782 784 786 788
777 774 773 772 763 760 762 758 754 756 760 767 770 757 737 720 706 702 705 703 702 703 705 707 705 702 702 700 695 694 695 698 699 696 696 697 697 695 693 691 690 690 689 689 688 689 688 688 689 689 689 690 690 691 692 694 699 703 704 704 704 704 704 705 705 706 707 708 710 712 714 716 719 722 725 729 732 736 739 743 746 749 753 756 760 762 765 767 769 771 773 774 776 778 780 782 784
774 778 770 765 763 759 761 762 757 763 768 755 745 741 731 717 705 700 704 701 698 700 701 702 700 698 699 696 692 694 696 699 698 696 698 699 698 696 691 689 689 688 688 688 687 687 687 686 687 688 689 689 689 688 689 691 695 699 701 703 704 703 702 700 699 702 705 707 709 710 711 713 715 717 720 723 726 730 733 738 741 745 748 752 755 759 761 764 766 767 769 770 772 774 776 778 780
769 772 763 760 765 761 764 771 766 768 770 751 737 734 729 726 714 701 700 697 694 696 698 698 698 697 696 692 692 698 700 700 699 699 699 699 698 696 690 685 685 686 688 688 687 687 687 686 686 686 687 687 687 688 689 691 692 693 696 699 701 702 701 700 699 699 703 706 708 708 709 710 711 713 715 718 722 725 729 732 736 740 743 746 750 754 757 760 762 764 766 767 769 770 772 774 776
765 764 762 763 767 762 763 771 770 769 768 754 742 736 732 731 717 702 699 696 691 694 697 697 695 693 692 691 695 700 700 700 699 697 696 695 694 693 687 684 685 689 692 691 689 689 688 688 687 687 686 686 687 689 690 692 692 692 693 694 697 700 701 702 702 702 701 701 703 705 707 708 709 711 713 715 717 720 723 726 730 734 737 741 745 748 752 755 758 760 762 764 766 767 768 770 772
766 767 765 765 767 764 763 765 764 762 760 752 745 739 731 721 706 700 701 694 691 695 698 698 695 692 693 696 699 699 697 697 697 694 692 690 688 687 686 688 692 695 695 692 691 691 691 691 690 689 688 687 687 688 689 690 691 691 692 692 693 695 697 700 703 704 702 698 699 701 703 705 707 709 711 712 713 714 717 720 723 727 731 735 739 742 746 750 753 756 758 760 762 764 765 766 768
763 766 766 766 766 766 766 765 760 758 757 752 747 740 726 709 698 697 698 697 697 698 698 697 694 695 700 702 701 699 697 698 697 695 693 691 691 690 690 693 696 696 695 694 694 693 693 693 692 692 691 689 688 687 687 687 688 689 689 689 690 691 693 695 698 701 701 699 698 698 699 701 703 704 706 708 709 711 713 715 718 721 724 728 732 736 740 744 747 750 753 756 758 760 762 763 764
753 756 757 760 761 765 771 766 756 755 755 748 745 739 722 705 698 695 696 699 700 699 699 697 694 697 701 702 702 702 703 704 704 703 702 702 703 702 699 697 696 696 697 698 698 697 695 694 694 693 692 691 689 688 688 688 688 688 687 687 688 689 691 692 694 695 697 698 698 696 696 698 698 699 700 702 705 707 710 711 713 716 719 723 726 730 734 737 740 744 747 750 753 755 758 760 761